STARLINK-11503, 63142

Orbit data source: Space-Track

STARLINK-11503, 63142 is a payload satellite owned by SpaceX/Seattle (US) in LEO that was launched on Mon, 03 Mar 2025 UTC via an FALCON 9 launch vehicle from the Air Force Eastern Test Range (AFETR). Payload-class satellites include a variety of spacecraft equipped with specific instruments for various scientific and technological missions. These include communications satellites like Starlink; space stations such as the ISS; scientific satellites like the Hubble; Earth observation satellites from companies like Planet Labs, Umbra, and HawkEye 360; GPS; miniature CubeSats for education and research; and military/defense satellites.

Loading next visibility...
Identifier
63142, 2025-043L
Orbit
LEO
Country
Flag of USUS
Related business
Manufacturer
SpaceX/Seattle
Mission
Operational Commercial Communications
Bus & Motor
STARLINK V2MD, Unknown motor
Mass
960 kg wet, ~910 kg dry
Launch date (UTC)
2025-03-03 (10 months ago)
Launch vehicle
FALCON 9
Launch site
Air Force Eastern Test Range (AFETR)
Object type
Payload
Rocket body
Debris
Shape & HBR
Box + 2 Pan, 18.1 m
Radar Cross Section
36.964 m², Large (>1 m²)

Expand to show TLE details & history
Last TLE update: 11 hours ago

TLE from 11 hours ago
0 STARLINK-11503
1 63142U 25043L   25352.09270124  .00150601  00000-0  11554-2 0  9993
2 63142  43.0013  22.1427 0002043 295.7593  64.3063 15.70851240 46461
Epoch: 2025-12-18T02:13Z
TLE epoch observation values (Epoch: 2025-12-18T02:13:29.387Z)
Latitude
-0.00005°
Longitude
-98.18297°
Altitude
355.638 km
Speed
7.698 km/s
True Right ascension
01h 28m 34s
True Declination
0° 00' 00"
Sunlit
Object was in full shadow at epoch
Visualization orbit readout
Latitude
Unknown
Longitude
Unknown
Altitude
Unknown
Speed
Unknown
Apparent Right ascension
Unknown
Apparent Declination
Unknown
Sunlit
N/A
Visualization observer readout
Local Sidereal Time
11:53:06
Azimuth
Unknown
Elevation
Unknown
Doppler factor
Unknown
Orbital elements
Apogee altitude
359.821 km
Perigee altitude
357.068 km
Semi-major axis
6,736.581 km
Eccentricity
0.0002
Inclination
43.0013°
RAAN
22.1427°
Arg. of periapsis
295.7593°
True anomaly
64.3274°
Mean anomaly
64.3063°
Eccentric anomaly
64.31685°
Mean motion
3.9254 °/min
Orbital period
91.71 mins
BSTAR
0.0011554
Loading maneuver chart data...
Computing Atmospheric mass density...
Loading historical data...
Loading historical data...
Loading historical data...
Loading historical data...
Loading historical data...
Loading historical data...
Loading historical data...

Documentation

Showing up to 5 results
|